Location: Unspecified
(0.0000°N, 0.0000°E)
Time: 11:40:57
(UTC+00:00)

S-56A Canister/Altair - Pass Details

Date: 02 December 2023
Orbit: 640 x 2488 km, 38.9° (Epoch: 24 February)

Event Time Altitude Azimuth Distance (km) Brightness Sun altitude
Rises 21:25:45 0° 297° (WNW) 4,636 11.8 -48.7°
Reaches altitude 10° 21:28:33 10° 293° (WNW) 3,881 11.3 -49.2°
Enters shadow 21:37:34 52° 238° (WSW) 2,434 10.0 -51.1°
Exits shadow 21:46:48 29° 157° (SSE) 3,646 10.9 -52.9°
Drops below altitude 10° 21:53:01 10° 145° (SE) 5,108 11.7 -54.1°
Sets 21:57:21 0° 140° (SE) 6,163 12.2 -54.9°
